EW8945 Weather Reports


time (UTC)temp
C
wind
direction
speed
KPH
gust
KPH
rain 1hr
cm
rain 24hr
cm
rain mn
cm
humidity
%
barometer
mb
20260901175455 20 0 0.0 3.2 0.00 0.00 0.00 58 1015.3
20260901174956 19 200 1.6 6.4 0.00 0.00 0.00 58 1015.3
20260901174457 19 311 1.6 6.4 0.00 0.00 0.00 60 1015.3
20260901173955 18 355 1.6 8.0 0.00 0.00 0.00 58 1015.3
20260901173455 19 355 1.6 8.0 0.00 0.00 0.00 58 1015.3
20260901172953 19 98 0.0 4.8 0.00 0.00 0.00 58 1015.3
20260901172453 19 306 1.6 4.8 0.00 0.00 0.00 59 1015.2
20260901171955 18 306 1.6 4.8 0.00 0.00 0.00 59 1015.3
20260901171453 18 296 1.6 6.4 0.00 0.00 0.00 61 1015.2
20260901170954 18 296 3.2 11.3 0.00 0.00 0.00 62 1015.1
20260901170453 18 294 3.2 11.3 0.00 0.00 0.00 61 1015.1
20260901165953 18 278 3.2 11.3 0.00 0.00 0.00 62 1015.0
20260901165453 18 122 1.6 8.0 0.00 0.00 0.00 61 1014.9
20260901164954 18 186 0.0 8.0 0.00 0.00 0.00 61 1015.0
20260901164451 18 90 0.0 4.8 0.00 0.00 0.00 62 1015.0
20260901163950 18 252 1.6 4.8 0.00 0.00 0.00 61 1015.0
20260901163451 18 144 1.6 9.7 0.00 0.00 0.00 62 1015.0
20260901162952 18 145 3.2 9.7 0.00 0.00 0.00 61 1015.0
20260901162452 18 161 1.6 9.7 0.00 0.00 0.00 64 1015.0
20260901161951 17 153 0.0 8.0 0.00 0.00 0.00 63 1014.9
20260901161453 17 264 0.0 4.8 0.00 0.00 0.00 63 1015.1
20260901160951 17 263 1.6 9.7 0.00 0.00 0.00 62 1015.1
20260901160451 17 246 3.2 9.7 0.00 0.00 0.00 63 1015.1
20260901155950 17 184 1.6 8.0 0.00 0.00 0.00 63 1015.0
20260901155450 17 179 1.6 9.7 0.00 0.00 0.00 63 1015.0
20260901154949 17 262 1.6 9.7 0.00 0.00 0.00 64 1014.9
20260901154449 17 236 0.0 6.4 0.00 0.00 0.00 64 1014.9
20260901153949 17 219 0.0 4.8 0.00 0.00 0.00 64 1014.8
20260901153450 17 234 1.6 4.8 0.00 0.00 0.00 64 1014.8
20260901152949 17 269 1.6 4.8 0.00 0.00 0.00 64 1014.8
20260901152449 17 219 0.0 4.8 0.00 0.00 0.00 63 1014.6
20260901151954 17 223 0.0 6.4 0.00 0.00 0.00 65 1014.6
20260901151950 17 263 0.0 3.2 0.00 0.00 0.00 64 1014.6
20260901150950 17 223 0.0 6.4 0.00 0.00 0.00 64 1014.6
20260901150447 16 248 1.6 4.8 0.00 0.00 0.00 66 1014.7
20260901145948 16 248 1.6 4.8 0.00 0.00 0.00 65 1014.6
20260901145447 16 221 1.6 6.4 0.00 0.00 0.00 66 1014.5
20260901144947 16 226 1.6 8.0 0.00 0.00 0.00 66 1014.4
20260901144447 16 280 1.6 8.0 0.00 0.00 0.00 66 1014.4
20260901143947 16 236 3.2 8.0 0.00 0.00 0.00 67 1014.4
20260901143448 16 231 3.2 9.7 0.00 0.00 0.00 67 1014.2
20260901142952 16 199 3.2 14.5 0.00 0.00 0.00 68 1014.1
20260901142948 16 212 4.8 14.5 0.00 0.00 0.00 67 1014.2
20260901142605 16 164 3.2 11.3 0.00 0.00 0.00 68 1014.0
20260901141445 16 227 4.8 11.3 0.00 0.00 0.00 68 1014.1
20260901140945 16 193 4.8 11.3 0.00 0.00 0.00 68 1013.9
20260901140451 16 202 1.6 9.7 0.00 0.00 0.00 68 1013.8
20260901140445 16 190 3.2 11.3 0.00 0.00 0.00 68 1013.8
20260901135444 16 190 3.2 12.9 0.00 0.00 0.00 68 1013.6
20260901134946 16 182 3.2 12.9 0.00 0.00 0.00 67 1013.6
20260901134445 16 242 1.6 11.3 0.00 0.00 0.00 67 1013.6
20260901133945 16 215 1.6 11.3 0.00 0.00 0.00 68 1013.6
20260901133444 16 213 1.6 11.3 0.00 0.00 0.00 68 1013.6
20260901132942 16 184 1.6 6.4 0.00 0.00 0.00 68 1013.6
20260901132444 16 183 1.6 6.4 0.00 0.00 0.00 68 1013.4
20260901131943 16 219 1.6 6.4 0.00 0.00 0.00 68 1013.4
20260901131444 16 254 1.6 8.0 0.00 0.00 0.00 68 1013.4
20260901130943 16 216 1.6 8.0 0.00 0.00 0.00 68 1013.4
20260901130440 16 212 0.0 4.8 0.00 0.00 0.00 68 1013.3
20260901125942 16 217 1.6 8.0 0.00 0.00 0.00 68 1013.3
20260901125442 16 209 1.6 8.0 0.00 0.00 0.00 69 1013.3
20260901124941 16 180 0.0 8.0 0.00 0.00 0.00 69 1013.2
20260901124441 16 194 0.0 3.2 0.00 0.00 0.00 69 1013.2
20260901123940 16 184 1.6 8.0 0.00 0.00 0.00 69 1013.2
20260901123442 16 205 1.6 8.0 0.00 0.00 0.00 69 1013.3
20260901122941 16 186 1.6 8.0 0.00 0.00 0.00 70 1013.2
20260901122440 16 195 0.0 8.0 0.00 0.00 0.00 70 1013.1
20260901121940 16 232 0.0 6.4 0.00 0.00 0.00 70 1013.2
20260901121442 16 273 0.0 1.6 0.00 0.00 0.00 70 1013.2
20260901120942 16 204 0.0 1.6 0.00 0.00 0.00 70 1013.1
20260901120444 16 194 1.6 8.0 0.00 0.00 0.00 69 1013.1
20260901120440 16 194 0.0 4.8 0.00 0.00 0.00 70 1013.1
20260901120054 16 207 1.6 8.0 0.00 0.00 0.00 70 1013.2
20260901114938 16 269 0.0 4.8 0.00 0.00 0.00 71 1013.1
20260901114438 16 275 0.0 4.8 0.00 0.00 0.00 70 1013.2
20260901113936 16 248 1.6 9.7 0.00 0.00 0.00 70 1013.3
20260901113436 16 241 1.6 11.3 0.00 0.00 0.00 70 1013.4
20260901112940 16 255 1.6 11.3 0.00 0.00 0.00 70 1013.3
20260901112936 16 265 1.6 11.3 0.00 0.00 0.00 70 1013.4
20260901111941 16 288 1.6 9.7 0.00 0.00 0.00 70 1013.3
20260901111935 16 282 1.6 11.3 0.00 0.00 0.00 70 1013.3
20260901110934 16 261 1.6 9.7 0.00 0.00 0.00 70 1013.6
20260901110435 16 286 0.0 8.0 0.00 0.00 0.00 70 1013.3
20260901105934 16 245 0.0 8.0 0.00 0.00 0.00 70 1013.4
20260901105436 16 267 1.6 9.7 0.00 0.00 0.00 71 1013.4
20260901104935 16 238 1.6 9.7 0.00 0.00 0.00 70 1013.2
20260901104434 16 248 0.0 8.0 0.00 0.00 0.00 71 1013.3
20260901103934 16 242 0.0 4.8 0.00 0.00 0.00 70 1013.2
20260901103434 16 259 1.6 12.9 0.00 0.00 0.00 71 1013.2
20260901102940 16 279 1.6 11.3 0.00 0.00 0.00 73 1013.2
20260901102935 16 282 1.6 12.9 0.00 0.00 0.00 72 1013.2
20260901101935 16 279 1.6 11.3 0.00 0.00 0.00 72 1013.1
20260901101435 16 296 1.6 9.7 0.00 0.00 0.00 72 1013.0
20260901100940 16 269 1.6 6.4 0.00 0.00 0.00 71 1012.9
20260901100934 16 267 1.6 9.7 0.00 0.00 0.00 72 1013.0
20260901100550 16 217 1.6 6.4 0.00 0.00 0.00 71 1012.9
20260901095435 16 277 1.6 11.3 0.00 0.00 0.00 71 1013.0
20260901094934 16 266 1.6 11.3 0.00 0.00 0.00 72 1013.0
20260901094435 16 264 0.0 6.4 0.00 0.00 0.00 72 1012.9
20260901093940 16 263 0.0 8.0 0.00 0.00 0.00 72 1012.9
20260901093935 16 260 0.0 4.8 0.00 0.00 0.00 72 1012.8
20260901092935 16 223 0.0 8.0 0.00 0.00 0.00 72 1012.9
20260901092434 16 256 0.0 1.6 0.00 0.00 0.00 73 1012.9
20260901091935 16 256 0.0 4.8 0.00 0.00 0.00 72 1012.9
20260901091434 16 256 1.6 6.4 0.00 0.00 0.00 72 1012.9
20260901090935 16 280 0.0 6.4 0.00 0.00 0.00 72 1013.0
20260901090438 16 241 0.0 1.6 0.00 0.00 0.00 72 1013.0
20260901090433 16 213 0.0 1.6 0.00 0.00 0.00 73 1012.9
20260901085433 16 281 0.0 0.0 0.00 0.00 0.00 73 1012.9
20260901084933 15 281 0.0 0.0 0.00 0.00 0.00 73 1013.0
20260901084433 15 281 0.0 0.0 0.00 0.00 0.00 73 1012.9
20260901083938 16 281 0.0 0.0 0.00 0.00 0.00 73 1012.8
20260901083932 16 281 0.0 0.0 0.00 0.00 0.00 72 1012.8
20260901082932 16 281 0.0 0.0 0.00 0.00 0.00 72 1012.9
20260901082432 16 281 0.0 0.0 0.00 0.00 0.00 72 1013.0
20260901081931 16 281 0.0 4.8 0.00 0.00 0.00 72 1012.9
20260901081431 16 281 0.0 9.7 0.00 0.00 0.00 72 1013.0
20260901080928 16 287 1.6 12.9 0.00 0.00 0.00 72 1013.0
20260901080429 16 289 1.6 12.9 0.00 0.00 0.00 72 1013.0
20260901075930 16 264 1.6 11.3 0.00 0.00 0.00 72 1013.0
20260901075429 16 270 1.6 11.3 0.00 0.00 0.00 72 1012.9
20260901074930 16 267 0.0 9.7 0.00 0.00 0.00 73 1012.9
20260901074426 16 295 0.0 6.4 0.00 0.00 0.00 73 1012.8
20260901073932 16 280 0.0 6.4 0.00 0.00 0.00 73 1013.0
20260901073926 16 299 1.6 6.4 0.00 0.00 0.00 73 1012.9
20260901073424 16 294 1.6 4.8 0.00 0.00 0.00 73 1013.0
20260901072424 16 267 0.0 6.4 0.00 0.00 0.00 74 1013.0
20260901071924 16 313 0.0 4.8 0.00 0.00 0.00 74 1013.0
20260901071425 16 313 0.0 1.6 0.00 0.00 0.00 74 1013.0
20260901070924 16 313 0.0 1.6 0.00 0.00 0.00 74 1013.0
20260901070424 16 313 0.0 1.6 0.00 0.00 0.00 73 1012.9
20260901065925 16 313 0.0 0.0 0.00 0.00 0.00 74 1012.9
20260901065427 16 313 0.0 3.2 0.00 0.00 0.00 74 1012.9
20260901065423 16 313 0.0 3.2 0.00 0.00 0.00 73 1012.9
20260901064421 16 313 0.0 3.2 0.00 0.00 0.00 75 1013.0
20260901063919 16 313 0.0 3.2 0.00 0.00 0.00 74 1013.0
20260901063423 16 313 0.0 1.6 0.00 0.00 0.00 74 1013.1
20260901063418 16 313 0.0 1.6 0.00 0.00 0.00 74 1013.0
20260901062417 16 313 0.0 0.0 0.00 0.00 0.00 74 1013.1
20260901061917 16 313 0.0 1.6 0.00 0.00 0.00 74 1013.1
20260901061415 16 313 0.0 1.6 0.00 0.00 0.00 74 1013.1
20260901060914 16 313 0.0 1.6 0.00 0.00 0.00 74 1013.1
20260901060417 15 313 0.0 1.6 0.00 0.00 0.00 74 1013.1
20260901055916 16 313 0.0 1.6 0.00 0.00 0.00 75 1013.2
20260901055420 15 313 0.0 4.8 0.00 0.00 0.00 76 1013.2
20260901055415 15 313 0.0 1.6 0.00 0.00 0.00 76 1013.2
20260901054416 15 313 0.0 4.8 0.00 0.00 0.00 76 1013.3
20260901053920 15 313 0.0 1.6 0.00 0.00 0.00 77 1013.2
20260901053915 15 313 0.0 4.8 0.00 0.00 0.00 77 1013.2
20260901052915 15 313 0.0 1.6 0.00 0.00 0.00 77 1013.2
20260901052415 15 313 0.0 6.4 0.00 0.00 0.00 77 1013.2
20260901051916 15 313 0.0 6.4 0.00 0.00 0.00 78 1013.2
20260901051414 15 313 0.0 4.8 0.00 0.00 0.00 78 1013.1
20260901050915 15 313 0.0 3.2 0.00 0.00 0.00 78 1013.1
20260901050414 15 313 0.0 3.2 0.00 0.00 0.00 78 1013.0
20260901045913 15 313 0.0 1.6 0.00 0.00 0.00 77 1012.9
20260901045415 15 313 0.0 4.8 0.00 0.00 0.00 77 1012.8
20260901044915 15 313 0.0 4.8 0.00 0.00 0.00 77 1012.8
20260901044412 15 313 0.0 3.2 0.00 0.00 0.00 76 1012.7
20260901043911 15 313 0.0 6.4 0.00 0.00 0.00 77 1012.7
20260901043410 15 313 1.6 12.9 0.00 0.00 0.00 76 1012.7
20260901042909 15 315 3.2 12.9 0.00 0.00 0.00 76 1012.7
20260901042409 15 324 4.8 12.9 0.00 0.00 0.00 77 1012.7
20260901041907 15 331 3.2 14.5 0.00 0.00 0.00 77 1012.6
20260901041408 15 274 3.2 14.5 0.00 0.00 0.00 77 1012.6
20260901040905 15 288 3.2 11.3 0.00 0.00 0.00 77 1012.5
20260901040406 15 323 4.8 12.9 0.00 0.00 0.00 77 1012.5
20260901035902 15 309 3.2 14.5 0.00 0.00 0.00 78 1012.4
20260901035402 16 296 3.2 14.5 0.00 0.00 0.00 78 1012.4
20260901034904 16 288 3.2 14.5 0.00 0.00 0.00 77 1012.3
20260901034402 16 306 1.6 14.5 0.00 0.00 0.00 77 1012.2
20260901033903 16 288 1.6 14.5 0.00 0.00 0.00 76 1012.2
20260901033402 16 312 3.2 12.9 0.00 0.00 0.00 76 1012.2
20260901032903 16 319 3.2 12.9 0.00 0.00 0.00 76 1012.1
20260901032404 16 304 6.4 14.5 0.00 0.00 0.00 76 1012.0
20260901031903 16 294 6.4 16.1 0.00 0.00 0.00 77 1011.9
20260901031403 16 303 4.8 16.1 0.00 0.00 0.00 75 1011.9
20260901030904 16 296 4.8 14.5 0.00 0.00 0.00 75 1011.8
20260901030403 16 296 4.8 14.5 0.00 0.00 0.00 73 1011.8
20260901025910 17 323 3.2 14.5 0.00 0.00 0.00 73 1011.6
20260901025904 16 330 4.8 14.5 0.00 0.00 0.00 73 1011.7
20260901024902 17 310 3.2 17.7 0.00 0.00 0.00 72 1011.7
20260901024403 17 328 4.8 17.7 0.00 0.00 0.00 73 1011.6
20260901023903 17 313 4.8 14.5 0.00 0.00 0.00 72 1011.7
20260901023402 17 310 6.4 19.3 0.00 0.00 0.00 72 1011.6
20260901022904 17 328 4.8 19.3 0.00 0.00 0.00 71 1011.6
20260901022403 17 327 4.8 19.3 0.00 0.00 0.00 71 1011.6
20260901021910 18 286 8.0 20.9 0.00 0.00 0.00 70 1011.5
20260901021903 17 300 6.4 19.3 0.00 0.00 0.00 71 1011.6
20260901021403 17 258 8.0 20.9 0.00 0.00 0.00 71 1011.5
20260901020402 18 300 4.8 16.1 0.00 0.00 0.00 70 1011.4
20260901015903 18 300 6.4 20.9 0.00 0.00 0.00 69 1011.4
20260901015402 18 302 9.7 20.9 0.00 0.00 0.00 69 1011.4
20260901014904 18 355 9.7 20.9 0.00 0.00 0.00 68 1011.4
20260901014407 18 299 8.0 19.3 0.00 0.00 0.00 68 1011.4
20260901014403 18 292 9.7 20.9 0.00 0.00 0.00 68 1011.4
20260901013408 18 310 8.0 19.3 0.00 0.00 0.00 68 1011.3
20260901013403 18 300 8.0 19.3 0.00 0.00 0.00 67 1011.4
20260901012401 18 9 9.7 22.5 0.00 0.00 0.00 69 1011.3
20260901011901 18 17 9.7 22.5 0.00 0.00 0.00 68 1011.3
20260901011406 18 38 11.3 24.1 0.00 0.00 0.00 67 1011.5
20260901011401 18 22 11.3 22.5 0.00 0.00 0.00 68 1011.5
20260901011018 19 355 11.3 24.1 0.00 0.00 0.00 66 1011.4
20260901005856 19 10 8.0 20.9 0.00 0.00 0.00 66 1011.5
20260901005357 19 5 8.0 20.9 0.00 0.00 0.00 65 1011.5
20260901004856 19 329 8.0 19.3 0.00 0.00 0.00 65 1011.3
20260901004358 19 32 8.0 22.5 0.00 0.00 0.00 66 1011.4
20260901003857 20 303 8.0 22.5 0.00 0.00 0.00 65 1011.4
20260901003356 20 312 9.7 22.5 0.00 0.00 0.00 65 1011.3
20260901002856 20 30 9.7 22.5 0.00 0.00 0.00 65 1011.2
20260901002357 20 329 9.7 20.9 0.00 0.00 0.00 65 1011.3
20260901001855 20 34 8.0 19.3 0.00 0.00 0.00 64 1011.3
20260901001355 20 351 9.7 24.1 0.00 0.00 0.00 64 1011.3
20260901000854 20 348 11.3 24.1 0.00 0.00 0.00 64 1011.2
20260901000352 20 74 11.3 27.4 0.00 0.00 0.00 64 1011.3
20260831235852 20 29 11.3 27.4 0.00 0.00 0.00 64 1011.4
20260831235352 20 44 11.3 27.4 0.00 0.00 0.00 64 1011.4
20260831234853 20 15 9.7 27.4 0.00 0.00 0.00 64 1011.4
20260831234351 20 11 9.7 22.5 0.00 0.00 0.00 63 1011.4
20260831233852 20 348 9.7 22.5 0.00 0.00 0.00 64 1011.4
20260831233353 21 355 8.0 22.5 0.00 0.00 0.00 64 1011.5
20260831232853 20 333 9.7 22.5 0.00 0.00 0.00 64 1011.4
20260831232358 21 329 9.7 24.1 0.00 0.00 0.00 64 1011.5
20260831232353 20 316 9.7 24.1 0.00 0.00 0.00 64 1011.4
20260831231352 20 5 9.7 22.5 0.00 0.00 0.00 66 1011.5
20260831230852 20 32 12.9 27.4 0.00 0.00 0.00 64 1011.5
20260831230354 21 5 11.3 27.4 0.00 0.00 0.00 65 1011.5
20260831230350 21 34 9.7 22.5 0.00 0.00 0.00 63 1011.6
20260831225348 21 34 9.7 20.9 0.00 0.00 0.00 63 1011.6
20260831224848 21 351 11.3 24.1 0.00 0.00 0.00 65 1011.6
20260831224354 21 11 12.9 29.0 0.00 0.00 0.00 63 1011.6
20260831224349 21 345 12.9 29.0 0.00 0.00 0.00 64 1011.5
20260831223348 21 63 11.3 25.7 0.00 0.00 0.00 63 1011.5
20260831222853 21 19 11.3 29.0 0.00 0.00 0.00 64 1011.6
20260831222848 21 36 11.3 29.0 0.00 0.00 0.00 64 1011.6
20260831221848 21 26 11.3 25.7 0.00 0.00 0.00 63 1011.8
20260831221349 22 348 11.3 25.7 0.00 0.00 0.00 63 1011.9
20260831220852 21 14 9.7 24.1 0.00 0.00 0.00 63 1012.0
20260831220846 21 44 11.3 25.7 0.00 0.00 0.00 63 1011.9
20260831215846 22 34 9.7 24.1 0.00 0.00 0.00 62 1012.1
20260831215346 22 28 9.7 24.1 0.00 0.00 0.00 62 1012.0
20260831214853 22 35 9.7 33.8 0.00 0.00 0.00 61 1012.2
20260831214848 21 18 11.3 24.1 0.00 0.00 0.00 63 1012.1
20260831213847 22 355 8.0 33.8 0.00 0.00 0.00 60 1012.2
20260831213347 22 17 6.4 16.1 0.00 0.00 0.00 59 1012.2
20260831212847 23 321 6.4 16.1 0.00 0.00 0.00 61 1012.3
20260831212350 22 349 8.0 17.7 0.00 0.00 0.00 59 1012.5
20260831212344 22 331 6.4 14.5 0.00 0.00 0.00 60 1012.3
20260831211343 23 71 8.0 17.7 0.00 0.00 0.00 62 1012.5
20260831210849 22 154 6.4 14.5 0.00 0.00 0.00 64 1012.6
20260831210844 22 42 4.8 17.7 0.00 0.00 0.00 62 1012.6
20260831210500 22 338 6.4 16.1 0.00 0.00 0.00 62 1012.7
20260831205350 22 28 4.8 14.5 0.00 0.00 0.00 62 1012.8
20260831205344 21 355 6.4 16.1 0.00 0.00 0.00 61 1012.8
20260831204349 22 22 6.4 19.3 0.00 0.00 0.00 63 1012.7
20260831204344 21 9 6.4 19.3 0.00 0.00 0.00 62 1012.8
20260831204002 21 330 6.4 17.7 0.00 0.00 0.00 65 1012.8
20260831203458 21 355 9.7 17.7 0.00 0.00 0.00 62 1012.8
20260831202342 22 94 8.0 17.7 0.00 0.00 0.00 62 1012.8
20260831201842 21 34 3.2 12.9 0.00 0.00 0.00 62 1012.8
20260831201343 22 343 3.2 12.9 0.00 0.00 0.00 61 1012.8
20260831200847 21 299 4.8 14.5 0.00 0.00 0.00 61 1012.9
20260831200843 21 307 4.8 12.9 0.00 0.00 0.00 61 1012.8
20260831195843 21 302 4.8 14.5 0.00 0.00 0.00 62 1012.9
20260831195342 21 346 4.8 12.9 0.00 0.00 0.00 62 1012.9
20260831194849 20 291 3.2 12.9 0.00 0.00 0.00 65 1013.0
20260831194843 21 316 3.2 12.9 0.00 0.00 0.00 63 1013.0
20260831194342 21 273 4.8 12.9 0.00 0.00 0.00 65 1013.0
20260831193343 20 311 3.2 8.0 0.00 0.00 0.00 64 1013.1
20260831192842 20 297 4.8 14.5 0.00 0.00 0.00 68 1013.2
20260831192343 20 339 3.2 14.5 0.00 0.00 0.00 66 1013.2
20260831191849 20 322 3.2 11.3 0.00 0.00 0.00 65 1013.3
20260831191842 20 339 3.2 12.9 0.00 0.00 0.00 66 1013.3
20260831191342 20 340 3.2 11.3 0.00 0.00 0.00 66 1013.3
20260831190340 20 341 3.2 9.7 0.00 0.00 0.00 68 1013.3
20260831185840 20 355 4.8 11.3 0.00 0.00 0.00 66 1013.3
20260831185347 19 73 4.8 11.3 0.00 0.00 0.00 70 1013.4
20260831185341 20 70 4.8 11.3 0.00 0.00 0.00 67 1013.3
20260831184345 18 331 4.8 11.3 0.00 0.00 0.00 70 1013.4
20260831184340 19 351 4.8 11.3 0.00 0.00 0.00 69 1013.4
20260831183339 19 39 3.2 14.5 0.00 0.00 0.00 69 1013.6
20260831182841 18 328 3.2 14.5 0.00 0.00 0.00 71 1013.6
20260831182343 18 327 3.2 12.9 0.00 0.00 0.00 71 1013.7
20260831182337 18 325 4.8 12.9 0.00 0.00 0.00 69 1013.7
20260831181338 18 310 3.2 12.9 0.00 0.00 0.00 71 1013.7
20260831180843 18 334 3.2 14.5 0.00 0.00 0.00 71 1013.7
20260831180839 18 302 4.8 14.5 0.00 0.00 0.00 69 1013.7